GW0464 Weather Reports


time (UTC)temp
F
wind
direction
speed
knots
gust
knots
rain 1hr
in
rain 24hr
in
rain mn
in
humidity
%
barometer
mb
20260502170105 95 59 0.9 7.0 0.00 0.00 0.00 69 1009.7
20260502163057 93 320 0.9 7.8 0.00 0.00 0.00 76 1009.9
20260502161554 92 265 2.6 7.8 0.00 0.00 0.00 77 1009.9
20260502151605 88 22 3.5 7.0 0.00 0.00 0.00 84 1009.6
20260502140123 86 22 2.6 7.0 0.00 0.00 0.00 89 1008.9
20260502123048 80 45 2.6 7.0 0.00 0.00 0.00 97 1007.8
20260502121551 80 360 2.6 7.8 0.00 0.00 0.00 97 1007.3
20260502114553 80 72 0.9 2.6 0.00 0.00 0.00 94 1006.9
20260502113055 80 49 0.9 2.6 0.00 0.00 0.00 91 1006.6
20260502111551 81 339 0.9 2.6 0.00 0.00 0.00 89 1006.3
20260502104556 82 336 0.0 3.5 0.00 0.00 0.00 81 1006.0
20260502103055 82 36 0.9 3.5 0.00 0.00 0.00 80 1005.9
20260502101721 82 15 0.0 2.6 0.00 0.00 0.00 81 1005.7
20260502090112 83 300 0.0 0.9 0.00 0.00 0.00 83 1005.6
20260502070107 85 9 0.9 3.5 0.00 0.00 0.00 80 1005.8
20260502064605 84 210 0.0 2.6 0.00 0.00 0.00 85 1005.6
20260502063054 86 138 0.0 1.7 0.00 0.00 0.00 85 1005.8
20260502061549 86 0 0.0 1.7 0.00 0.00 0.00 84 1005.9
20260502060051 85 0 0.0 3.5 0.00 0.00 0.00 87 1005.8
20260502054555 85 13 1.7 3.5 0.00 0.00 0.00 89 1006.0
20260502053049 85 0 0.0 1.7 0.00 0.00 0.00 88 1005.9
20260502051556 85 238 0.9 3.5 0.00 0.00 0.00 89 1005.8
20260502050050 86 229 0.9 3.5 0.00 0.00 0.00 89 1005.7
20260502044554 86 283 1.7 2.6 0.00 0.00 0.00 88 1005.7
20260502043050 86 0 0.9 3.5 0.00 0.00 0.00 87 1005.8
20260502041559 86 227 0.9 3.5 0.00 0.00 0.00 88 1005.8
20260502040056 86 296 0.9 2.6 0.00 0.00 0.00 88 1005.6
20260502034551 86 0 0.9 2.6 0.00 0.00 0.00 88 1005.4
20260502033051 87 222 0.9 2.6 0.00 0.00 0.00 87 1005.3
20260502031555 86 213 0.0 1.7 0.00 0.00 0.00 88 1005.0
20260502030057 86 309 0.9 2.6 0.00 0.00 0.00 87 1004.8
20260502024604 88 40 0.0 0.9 0.00 0.00 0.00 86 1004.5
20260502023106 87 0 0.0 1.7 0.00 0.00 0.00 87 1004.4
20260502021550 89 16 0.9 2.6 0.00 0.00 0.00 85 1004.1
20260502020053 89 0 0.0 2.6 0.00 0.00 0.00 84 1003.9
20260502014551 90 0 0.0 2.6 0.00 0.00 0.00 83 1003.6
20260502013056 91 79 0.9 2.6 0.00 0.00 0.00 81 1003.2
20260502011550 91 0 0.9 2.6 0.00 0.00 0.00 81 1003.0
20260502010053 92 92 1.7 3.5 0.00 0.00 0.00 80 1002.7
20260502004551 92 82 1.7 2.6 0.00 0.00 0.00 80 1002.5
20260502003052 93 98 1.7 4.3 0.00 0.00 0.00 79 1002.3
20260502001608 93 60 1.7 3.5 0.00 0.00 0.00 78 1002.1
20260501234549 95 42 1.7 5.2 0.00 0.00 0.00 75 1001.8
20260501233049 95 49 1.7 6.1 0.00 0.00 0.00 74 1001.6
20260501231549 96 67 1.7 7.0 0.00 0.00 0.00 75 1001.7
20260501230049 97 54 2.6 7.0 0.00 0.00 0.00 72 1001.6
20260501224605 97 69 4.3 8.7 0.00 0.00 0.00 70 1001.5
20260501223050 98 51 4.3 8.7 0.00 0.00 0.00 71 1001.6
20260501221551 97 45 4.3 10.4 0.00 0.00 0.00 72 1001.6
20260501220056 97 249 5.2 10.4 0.00 0.00 0.00 72 1001.7
20260501214557 97 77 4.3 8.7 0.00 0.00 0.00 70 1001.7
20260501213050 97 101 4.3 9.6 0.00 0.00 0.00 69 1001.9
20260501211551 97 62 4.3 10.4 0.00 0.00 0.00 70 1002.1
20260501210054 98 17 4.3 7.8 0.00 0.00 0.00 67 1002.2
20260501204549 97 40 4.3 8.7 0.00 0.00 0.00 69 1002.4
20260501203050 97 42 3.5 8.7 0.00 0.00 0.00 69 1002.7
20260501201556 97 25 2.6 9.6 0.00 0.00 0.00 70 1003.0
20260501200054 97 72 2.6 6.1 0.00 0.00 0.00 70 1003.4
20260501194558 97 110 3.5 7.8 0.00 0.00 0.00 70 1003.7
20260501193052 96 17 2.6 7.8 0.00 0.00 0.00 71 1004.1
20260501191554 96 360 4.3 8.7 0.00 0.00 0.00 71 1004.5
20260501190048 96 61 2.6 8.7 0.00 0.00 0.00 72 1004.7
20260501184555 96 53 2.6 7.0 0.00 0.00 0.00 72 1005.1
20260501183046 95 27 1.7 6.1 0.00 0.00 0.00 73 1005.3
20260501181546 95 11 1.7 7.0 0.00 0.00 0.00 72 1005.5
20260501180054 94 55 1.7 7.8 0.00 0.00 0.00 74 1005.8
20260501174549 94 79 2.6 7.0 0.00 0.00 0.00 74 1006.0
20260501173116 94 86 1.7 6.1 0.00 0.00 0.00 74 1006.1